EW7772 Weather Reports


time (UTC)temp
F
wind
direction
speed
knots
gust
knots
rain 1hr
in
rain 24hr
in
rain mn
in
humidity
%
barometer
mb
20260502163003 79 287 0.0 1.7 0.00 0.00 0.00 25 1016.5
20260502161558 80 287 0.0 0.9 0.00 0.00 0.00 24 1016.7
20260502151610 80 286 0.0 3.5 0.00 0.00 0.00 23 1017.5
20260502123025 76 267 0.0 2.6 0.00 0.00 0.00 26 1019.7
20260502121529 75 220 0.0 1.7 0.00 0.00 0.00 26 1019.9
20260502114518 75 274 0.0 1.7 0.00 0.00 0.00 28 1020.3
20260502113016 74 274 0.0 2.6 0.00 0.00 0.00 31 1020.7
20260502111511 74 218 0.0 1.7 0.00 0.00 0.00 34 1020.8
20260502110010 73 88 0.9 2.6 0.00 0.00 0.00 38 1021.0
20260502104508 73 269 0.9 3.5 0.00 0.00 0.00 34 1021.1
20260502103007 72 275 0.0 1.7 0.00 0.00 0.00 37 1021.3
20260502101502 71 277 0.0 2.6 0.00 0.00 0.00 38 1021.5
20260502071532 62 90 0.9 4.3 0.00 0.00 0.00 51 1022.6
20260502070045 60 86 0.9 2.6 0.00 0.00 0.00 52 1022.5
20260502064525 59 80 0.0 4.3 0.00 0.00 0.00 53 1022.8
20260502063031 58 82 0.0 3.5 0.00 0.00 0.00 55 1022.7
20260502061524 57 88 0.0 2.6 0.00 0.00 0.00 57 1022.6
20260502060035 56 90 0.0 0.9 0.00 0.00 0.00 58 1022.8
20260502054537 53 90 0.0 0.9 0.00 0.00 0.00 63 1022.9
20260502053022 50 90 0.0 0.9 0.00 0.00 0.00 68 1022.9
20260502051522 47 90 0.0 0.0 0.00 0.00 0.00 72 1022.9
20260502050025 46 90 0.0 0.9 0.00 0.00 0.00 73 1022.9
20260502044521 45 90 0.0 0.0 0.00 0.00 0.00 74 1022.8
20260502043020 45 90 0.0 0.0 0.00 0.00 0.00 73 1022.8
20260502041531 45 90 0.0 0.0 0.00 0.00 0.00 72 1022.8
20260502040042 45 90 0.0 0.9 0.00 0.00 0.00 73 1022.6
20260502034518 45 90 0.0 0.9 0.00 0.00 0.00 73 1022.6
20260502033027 45 90 0.0 0.9 0.00 0.00 0.00 73 1022.7
20260502031514 45 90 0.0 0.9 0.00 0.00 0.00 72 1022.8
20260502030013 46 90 0.0 0.0 0.00 0.00 0.00 72 1022.9
20260502024512 46 90 0.0 0.0 0.00 0.00 0.00 71 1023.0
20260502023020 47 90 0.0 0.0 0.00 0.00 0.00 70 1023.1
20260502021506 47 90 0.0 0.0 0.00 0.00 0.00 68 1023.2
20260502020003 48 90 0.0 0.0 0.00 0.00 0.00 67 1023.2
20260502014607 49 90 0.0 0.0 0.00 0.00 0.00 65 1023.3
20260502013101 50 90 0.0 0.0 0.00 0.00 0.00 63 1023.3
20260502011605 51 90 0.0 0.0 0.00 0.00 0.00 60 1023.4
20260502010049 52 90 0.0 0.0 0.00 0.00 0.00 58 1023.4
20260502004546 54 90 0.0 0.0 0.00 0.00 0.00 55 1023.5
20260502003043 55 90 0.0 0.0 0.00 0.00 0.00 52 1023.6
20260502001544 56 90 0.0 1.7 0.00 0.00 0.00 51 1023.5
20260502000055 56 95 0.0 1.7 0.00 0.00 0.00 51 1023.7
20260501234538 56 78 0.0 0.9 0.00 0.00 0.00 50 1023.9
20260501233046 56 79 0.0 2.6 0.00 0.00 0.00 49 1023.8
20260501231533 57 79 0.0 2.6 0.00 0.00 0.00 48 1023.9
20260501230105 57 90 0.0 4.3 0.00 0.00 0.00 48 1023.9
20260501224530 58 84 0.0 3.5 0.00 0.00 0.00 47 1023.8
20260501223029 59 88 0.9 6.1 0.00 0.00 0.00 46 1023.8
20260501221526 59 78 0.9 3.5 0.00 0.00 0.00 46 1023.8
20260501220025 59 96 0.9 4.3 0.00 0.00 0.00 46 1023.8
20260501214525 59 91 0.9 5.2 0.00 0.00 0.00 45 1023.7
20260501213028 60 92 1.7 7.0 0.00 0.00 0.00 45 1023.7
20260501211524 60 79 1.7 7.0 0.00 0.00 0.00 45 1023.7
20260501210023 60 102 0.9 4.3 0.00 0.00 0.00 46 1023.7
20260501204523 60 80 0.9 6.1 0.00 0.00 0.00 45 1023.8
20260501203026 60 80 0.0 2.6 0.00 0.00 0.00 46 1023.9
20260501201522 59 91 0.0 2.6 0.00 0.00 0.00 48 1023.9
20260501200021 59 84 0.0 1.7 0.00 0.00 0.00 47 1023.9
20260501194522 59 86 0.0 0.9 0.00 0.00 0.00 47 1023.8
20260501193020 61 86 0.0 0.9 0.00 0.00 0.00 45 1023.7
20260501191519 61 86 0.0 0.0 0.00 0.00 0.00 43 1023.7
20260501190019 63 86 0.0 0.0 0.00 0.00 0.00 42 1023.6
20260501184522 64 86 0.0 0.9 0.00 0.00 0.00 40 1023.5
20260501183019 65 85 0.0 2.6 0.00 0.00 0.00 38 1023.4
20260501181517 66 80 0.0 2.6 0.00 0.00 0.00 37 1023.3
20260501180017 67 105 1.7 5.2 0.00 0.00 0.00 35 1023.3
20260501174517 67 84 0.9 3.5 0.00 0.00 0.00 35 1023.2
20260501173024 68 87 0.9 7.0 0.00 0.00 0.00 33 1023.3
20260501171521 69 92 0.0 4.3 0.00 0.00 0.00 32 1023.3
20260501170014 69 83 1.7 7.8 0.00 0.00 0.00 32 1023.4